{"data":{"norad_id":44768,"intl_designator":"2019-074BH","name":"STARLINK-1063","alt_names":[],"object_type":"PAYLOAD","status":"ACTIVE","operator":null,"country":"US","launch_date":"2019-11-11","launch_site_code":"AFETR","launch_vehicle":null,"mission":null,"orbit_class":"UNKNOWN","rcs_meters":null,"size_class":null,"mass_kg":null,"dimensions":null,"purposes":["comms"],"wikipedia_slug":null,"has_3d_model":false,"image_url":null,"decayed_at":null,"tle_current":{"epoch":"2026-09-20T03:13:05.166048Z","epoch_age_seconds":49863,"freshness":"FRESH","line1":"1 44768U 19074BH  26263.13408757  .00077813  00000+0  86272-3 0  9997","line2":"2 44768  53.1490  11.1954 0001013 308.3545  51.7379 15.62299163378438","mean_motion":15.62299163,"eccentricity":0.0001013,"inclination_deg":53.149,"raan_deg":11.1954,"arg_perigee_deg":308.3545,"mean_anomaly_deg":51.7379,"bstar":0.00086272,"rev_number":37843,"period_min":92.171847371079,"perigee_km":380.33281295194,"apogee_km":381.70221765674,"semimajor_km":6759.1545153043,"source":"CELESTRAK","updated_at":"2026-09-20T09:00:38.220339Z"}}}